Location: Cucq
(50.4773°N, 1.6202°E)
Time: 05:37:37
(UTC+00:00)

COSMOS 2487 - Pass Details

Date: 07 August 2020
Orbit: 439 x 443 km, 74.7° (Epoch: 19 September)

Event Time Altitude Azimuth Distance (km) Brightness Sun altitude
Exits shadow 00:48:38 27° 298° (WNW) 882 4.0 -22.3°
Maximum altitude 00:48:44 27° 302° (WNW) 881 4.0 -22.3°
Drops below altitude 10° 00:51:44 10° 2° (N) 1,566 6.2 -22.2°
Sets 00:54:02 0° 15° (NNE) 2,442 7.7 -22.1°
